Home > Time Zones > World Clock > Weather > U.S.A. > Hilo > Past weeks

Flag for U.S.A. Weather past 2 weeks in Hilo, Hawaii, U.S.A.

Now
72 °F

Light rain. Fog.


Feels Like: 67 °F
Forecast: 69 / 80 °F
Wind: 3 mph from Northeast

Location: Hilo International Airport

Current Time: May 27, 2015 at 2:55:32 PM

Latest Report: May 27, 2015 at 2:23 PM


Visibility: 1 mi

Pressure: 29.92 "Hg

Humidity: 94%

Dew point: 70 °F

Location of HiloLocation

Historic Weather in Hilo — Graph

°F

Hilo temperature yesterday

Maximum temperature yesterday: 76 °F (at 9:53 AM)
Minimum temperature yesterday: 68 °F (at 6:53 AM)
Average temperature yesterday: 72 °F

Past Weeks' High & Low Weather Summary

 TemperatureHumidityPressure
High83 °F (May 22, 10:53 AM)100% (May 13, 5:19 AM)30.19 "Hg (May 13, 5:19 AM)
Low64 °F (May 15, 3:53 AM)53% (May 22, 10:53 AM)29.91 "Hg (May 26, 3:53 PM)
Average72 °F79%30.05 "Hg
* Reported May 12 1:53 PM — May 27 1:53 PM, Hilo, Weather by CustomWeather, © 2015

Note: Actual official high and low records may vary slightly from our data, if they occured in-between our weather recording intervals... More about our weather records

Advertising

Hilo weather history for previous 24 hours

 ConditionsComfort  
Time TempWeatherWind HumidityBarometerVisibility
1:53 PM
Wed, May 27
71 °FLight rain. Fog.3 mph93%29.92 "Hg2 mi
1:09 PM72 °FLight rain. Fog.5 mph94%29.94 "Hg2 mi
12:53 PM72 °FLight rain. Fog.5 mph91%29.93 "Hg3 mi
11:53 AM71 °FLight rain. Fog.5 mph93%29.95 "Hg2 mi
11:16 AM72 °FLight rain. Fog.No wind88%29.96 "Hg2 mi
10:53 AM71 °FLight rain. Fog.No wind90%29.96 "Hg2 mi
10:34 AM72 °FLight rain. Mostly cloudy.No wind88%29.96 "Hg4 mi
10:18 AM72 °FLight rain. Low clouds.3 mph88%29.96 "Hg4 mi
9:53 AM72 °FMore clouds than sun.No wind84%29.96 "Hg3 mi
9:25 AM72 °FFog.3 mph83%29.97 "Hg4 mi
9:06 AM72 °FLight rain. Mostly cloudy.No wind83%29.97 "Hg8 mi
8:53 AM71 °FMostly cloudy.No wind87%29.96 "Hg9 mi
7:53 AM69 °FMostly cloudy.3 mph90%29.96 "Hg9 mi
6:53 AM68 °FLight rain. Fog.5 mph90%29.95 "Hg2 mi
6:46 AM68 °FLight rain. Fog.7 mph88%29.96 "Hg2 mi
6:35 AM70 °FLight rain. Fog.6 mph83%29.96 "Hg2 mi
5:53 AM69 °FOvercast.No wind84%29.93 "Hg10 mi
4:53 AM70 °FOvercast.3 mph81%29.92 "Hg10 mi
3:53 AM69 °FOvercast.6 mph84%29.92 "Hg10 mi
3:36 AM70 °FOvercast.3 mph83%29.93 "Hg10 mi
2:53 AM69 °FOvercast.No wind87%29.93 "Hg10 mi
2:45 AM70 °FOvercast.3 mph83%29.93 "Hg10 mi
1:53 AM70 °FOvercast.5 mph84%29.94 "Hg10 mi
12:53 AM69 °FOvercast.No wind90%29.96 "Hg10 mi
11:53 PM
Tue, May 26
69 °FOvercast.3 mph87%29.98 "Hg10 mi
10:53 PM69 °FMostly cloudy.6 mph87%29.98 "Hg10 mi
9:53 PM69 °FOvercast.5 mph87%29.99 "Hg10 mi
8:53 PM69 °FOvercast.7 mph87%29.98 "Hg10 mi
7:53 PM69 °FOvercast.6 mph87%29.97 "Hg10 mi
7:43 PM70 °FOvercast.3 mph83%29.97 "Hg9 mi
6:53 PM73 °FMostly cloudy.No wind76%29.95 "Hg7 mi
5:53 PM73 °FOvercast.5 mph76%29.93 "Hg7 mi
4:53 PM74 °FOvercast.5 mph74%29.91 "Hg10 mi
3:53 PM75 °FOvercast.5 mph71%29.91 "Hg10 mi
2:53 PM75 °FOvercast.6 mph74%29.92 "Hg10 mi
Weather by CustomWeather, © 2015

See weather overviewHow to use our weather pages